Skip Page Navigation
NASA JPL Caltech
NASA Logo - Jet Propulsion Laboratory + View the NASA Portal
+ Center for Near-Earth Object Studies
JPL Home Earth Solar System Stars & Galaxies Technology
JPL Solar System Dynamics
BODIES ORBITS EPHEMERIDES TOOLS PHYSICAL DATA DISCOVERY FAQ SITE MAP
JPL Small-Body Database Browser
Search: [ help ]  
192088 (2006 BG169)
Classification: Main-belt Asteroid          SPK-ID: 2192088
Ephemeris | Orbit Diagram | Orbital Elements | Mission Design | Physical Parameters | Discovery Circumstances | Close-Approach Data ]

[ hide orbit diagram ]

For accurate long-term ephemerides, please instead use our Horizons system.This orbit viewer was implemented using two-body methods, and hence should not be used for determining accurate long-term trajectories (over several years or decades) or planetary encounter circumstances.


Orbital Elements at Epoch 2459396.5 (2021-Jul-01.0) TDB
Reference: JPL 24 (heliocentric ecliptic J2000)
 Element Value Uncertainty (1-sigma)   Units 
e .009690110376059829 4.2e-08  
a 3.012748149367796 3.2659e-08 au
q 2.983554287265152 1.1863e-07 au
i 9.439158834110051 4.7369e-06 deg
node 150.0816452816883 3.0779e-05 deg
peri 160.5609546279654 0.00028361 deg
M 187.2925304813281 0.00028133 deg
tp 2460312.828701013590
(2024-Jan-03.32870101)
0.0014904 TDB
period 1910.040910704377
5.23
3.1058e-05
8.503e-08
d
yr
n .1884776383492438 3.0647e-09 deg/d
Q 3.04194201147044 3.2975e-08 au
  Orbit Determination Parameters
   # obs. used (total)      321  
   data-arc span      7245 days (19.84 yr)  
   first obs. used      2001-03-19  
   last obs. used      2021-01-18  
   planetary ephem.      DE441  
   SB-pert. ephem.      SB441-N16  
   condition code      0  
   norm. resid. RMS      .53446  
   source      ORB  
   producer      Otto Matic  
   solution date      2021-Apr-13 22:14:37  

Additional Information
 Earth MOID = 1.97078 au 
 Jupiter MOID = 1.97835 au 
 T_jup = 3.228 
[ hide covariance matrix ]
Orbital Elements at Epoch 2457225.5 (2015-Jul-22.0) TDB
Reference: JPL 24 (heliocentric ecliptic J2000)
 Element Value Uncertainty (1-sigma)   Units 
e .01269723650064962 4.2077e-08  
q 2.972059397159702 1.1812e-07 au
tp 2456439.405343516839
(2013-May-26.90534352)
0.0011437 TDB
node 150.1954780682791 3.0714e-05 deg
peri 150.1934682201468 0.0002173 deg
i 9.449882449948099 4.7433e-06 deg
  Orbit Determination Parameters
   # obs. used (total)      321  
   data-arc span      7245 days (19.84 yr)  
   first obs. used      2001-03-19  
   last obs. used      2021-01-18  
   planetary ephem.      DE441  
   SB-pert. ephem.      SB441-N16  
   condition code      0  
   norm. resid. RMS      .53446  
   source      ORB  
   producer      Otto Matic  
   solution date      2021-Apr-13 22:14:37  

Additional Information
 Jupiter MOID = 1.97835 au 
 T_jup = 3.228 
Orbit Covariance (6×6)
  e q tp node peri i
e 1.77050303015598E-15 -4.814052393269951E-15 9.025760245195507E-13 1.114356195390846E-15 1.957943254991289E-13 -3.658779450369227E-16
q -4.814052393269951E-15 1.395278736426057E-14 -6.927935803519152E-12 -3.235411223349686E-15 -1.309815475007741E-12 2.53741033903678E-15
tp 9.025760245195507E-13 -6.927935803519152E-12 1.308129199370856E-6 8.811273422178918E-11 2.460596710468526E-7 -1.977988482327626E-11
node 1.114356195390846E-15 -3.235411223349686E-15 8.811273422178918E-11 9.433258458122317E-10 -9.134494221453654E-10 2.755995992487749E-11
peri 1.957943254991289E-13 -1.309815475007741E-12 2.460596710468526E-7 -9.134494221453654E-10 4.72179273903104E-8 -3.081709845050497E-11
i -3.658779450369227E-16 2.53741033903678E-15 -1.977988482327626E-11 2.755995992487749E-11 -3.081709845050497E-11 2.249928781921032E-11

Ephemeris | Orbit Diagram | Orbital Elements | Mission Design | Physical Parameters | Discovery Circumstances | Close-Approach Data ]

Physical Parameter Table
Parameter Symbol Value Units Sigma Reference Notes
absolute magnitude H 15.78   n/a MPCxxxxx  

192088 (2006 BG169)          Discovered 2006-Jan-26 by Mt. Lemmon Survey at Mount Lemmon
Reference: 20080917/Numbers.arcLast Updated: 2008-09-19

[ show close-approach data ]
Ephemeris | Orbit Diagram | Orbital Elements | Mission Design | Physical Parameters | Discovery Circumstances | Close-Approach Data ]
ABOUT SSD CREDITS/AWARDS PRIVACY/COPYRIGHT GLOSSARY LINKS
FirstGov 2021-Jul-28 05:39 UT
(server date/time)  
NASA Home Page
Site Manager:   Ryan S. Park
Webmaster  Alan B. Chamberlin